Regional Weather Roundup
Issued by NWS

Home | Current Version | Previous Version | Text Only | Print | Product List | Glossary On
Versions: 1 2 3 4 5 6 7 8 9 10 11 12 13 14 15 16 17 18 19 20 21 22 23 24 25 26 27 28 29 30 31 32 33 34 35 36 37 38 39 40 41 42 43 44 45 46 47 48 49 50
000
ASUS43 KDMX 210306
RWRIA

WEATHER ROUNDUP FOR IOWA
NATIONAL WEATHER SERVICE DES MOINES IA
1000 PM CDT THU JUL 20 2017

NOTE: "FAIR" INDICATES FEW OR NO CLOUDS BELOW 12,000 FEET WITH NO
SIGNIFICANT WEATHER AND/OR OBSTRUCTIONS TO VISIBILITY.

* - THESE STATIONS ARE NOT NWS STATIONS...THUS NOT UNDER NWS
QUALITY CONTROL.  THEY ALSO DO NOT REPORT WEATHER SUCH
AS PRECIPITATION OR FOG.

IAZ001>003-012>014-020>022-031>034-043>046-210400-
   NORTHWEST IOWA

CITY           SKY/WX    TMP DP  RH WIND       PRES   REMARKS
CARROLL *      CLOUDY    73  68  83 S12       29.90F
CHEROKEE *     CLOUDY    77  74  92 CALM      29.94S
DENISON *      CLOUDY    73  68  83 E8        29.94F
ORANGE CITY *  PTCLDY    79  75  89 E5        29.95R HX  82
SHELDON *      CLEAR     75  73  94 SE6       29.94R
SIOUX CITY     CLEAR     77  70  79 SE12      29.92R
SPENCER        CLOUDY    79  73  82 SE8       29.96R HX  82
STORM LAKE *   CLOUDY    73  70  88 SE5       29.95S
$$

IAZ055>058-069>071-079>083-090>094-210400-
   SOUTHWEST IOWA

CITY           SKY/WX    TMP DP  RH WIND       PRES   REMARKS
ATLANTIC *     CLOUDY    79  70  73 NE3G12    29.93F HX  81
AUDUBON *      CLOUDY    75  70  83 CALM      29.93F
CLARINDA *       N/A     82  81  94 CALM      29.93S HX  95
COUNCIL BLFS * CLOUDY    84  81  89 E8        29.92R HX  98
CRESTON *      PTCLDY    82  79  89 NE5       29.96S HX  93
HARLAN  *      CLOUDY    77  70  78 VRB5      29.95F
LAMONI         CLEAR     86  79  79 S3        29.94S HX  99
RED OAK *      MOCLDY    84  81  89 NE5       29.92S HX  98
SHENANDOAH *   PTCLDY    84  77  79 SE3       29.91R HX  94
$$

IAZ047>049-059>061-072>074-084-210400-
   CENTRAL IOWA

CITY           SKY/WX    TMP DP  RH WIND       PRES   REMARKS
AMES           TSTM      71  71 100 SW28G36   30.01R VSB 1/2
ANKENY *       HVY RAIN  81  75  83 SW14      29.98R HX  86
BOONE *        LGT RAIN  72  70  94 SW15G26   29.91F
CHARITON *     CLOUDY    86  79  79 CALM      29.93S HX  99
DES MOINES     TSTM      83  77  82 NW15G23   29.93R HX  92
GRINNELL*      CLOUDY    82  77  84 E8        29.96S HX  90
KNOXVILLE *    CLOUDY    88  77  70 E5        29.91S HX 100
MARSHALLTOWN   CLOUDY    81  76  84 E9        29.93F HX  87
NEWTON *       CLOUDY    84  79  84 E13       29.92F HX  96
PELLA *        MOCLDY    86  78  75 E5        29.94R HX  98
PERRY *        HVY RAIN  72  71  97 NE9       29.94F
$$

IAZ004>006-015-016-023>025-035-036-210400-
   NORTH CENTRAL IOWA

CITY           SKY/WX    TMP DP  RH WIND       PRES   REMARKS
ALGONA *       CLOUDY    79  75  89 E6        29.95F HX  82
CLARION *      CLOUDY    79  75  89 S18G28    29.96R HX  82
ESTHERVILLE    CLOUDY    75  75 100 SE7       29.96R
FORT DODGE *   CLOUDY    75  66  73 SE3       29.96F
MASON CITY     CLOUDY    77  73  87 E6        29.98R
FOREST CITY *    N/A     77  73  88 E5        29.97S
WEBSTER CITY * CLOUDY    72  70  94 N6        29.92F
IOWA FALLS *     N/A     80  74  83 E6        29.95F HX  84
$$

IAZ007>011-017>019-026>030-037>042-050>054-066-210400-
   NORTHEAST IOWA

CITY           SKY/WX    TMP DP  RH WIND       PRES   REMARKS
CEDAR RAPIDS   CLOUDY    81  80  97 E8        29.96R HX  91
CHARLES CITY * CLOUDY    75  75 100 E6        29.98S
CLINTON *      CLOUDY    80  77  90 SE3       29.97R HX  87
DECORAH *      MOCLDY    73  72  94 CALM      29.99R
DUBUQUE        CLEAR     76  72  87 NE7       29.99R
MONTICELLO *   CLOUDY    79  77  94 CALM      29.96R HX  83
OELWEIN *      CLOUDY    75  72  88 E6        29.98S
WATERLOO       CLOUDY    76  73  91 E6        29.94R
$$

IAZ064-065-067-068-078-210400-
   EAST CENTRAL IOWA

CITY           SKY/WX    TMP DP  RH WIND       PRES   REMARKS
DAVENPORT      MOCLDY    81  77  88 E7        29.97R HX  88
IOWA CITY      CLOUDY    79  69  71 S8        29.98R HX  81
MT. PLEASANT * LGT RAIN  73  67  82 CALM      29.96R
MUSCATINE *    RAIN      73  70  88 NE14      29.96F
QUAD CITIES    CLOUDY    84  77  79 VRB5      29.94S THUNDER HX  94
$$

IAZ062-063-075>077-085>089-095>099-210400-
   SOUTHEAST IOWA

CITY           SKY/WX    TMP DP  RH WIND       PRES   REMARKS
BURLINGTON     CLOUDY    82  69  64 N8        29.96R HX  85
FAIRFIELD *    CLOUDY    75  72  88 N20       29.97R HAZE
FORT MADISON * CLOUDY    81  72  74 NE6       29.98R HX  84
KEOKUK *       CLOUDY    84  79  84 N6        29.95R HX  96
OSKALOOSA *    MOCLDY    84  74  73 SE9G18    29.94R HX  91
CENTERVILLE *    N/A     82  77  83 CALM      29.96S HX  91
OTTUMWA        CLOUDY    84  72  67 E10       29.95R HX  89
WASHINGTON *   CLOUDY    75  70  83 SW9G18    29.96F
$$

ABBREVIATIONS USED IN REMARKS
   TC - TEMPERATURES IN CELSIUS
  WCI - WIND CHILL INDEX
   HX - HEAT INDEX
  VSB - VISIBILITY
$$





USA.gov is the U.S. government's official web portal to all federal, state and local government web resources and services.